Time,TemperatureF,DewpointF,PressureIn,WindDirection,WindDirectionDegrees,WindSpeedMPH,WindSpeedGustMPH,Humidity,HourlyPrecipIn,Conditions,Clouds,dailyrainin,SoftwareType,DateUTC
2013-02-16 00:01:00,42.0,38.0,30.14,WNW,292,0.0,0.0,85,0.00,,,0.00,,2013-02-16 00:01:00,
2013-02-16 00:11:00,42.0,38.0,30.14,WNW,292,0.0,0.0,85,0.00,,,0.00,,2013-02-16 00:11:00,
2013-02-16 00:21:00,43.0,39.0,30.16,WNW,292,0.0,0.0,85,0.00,,,0.00,,2013-02-16 00:21:00,
2013-02-16 00:31:00,43.0,39.0,30.14,North,0,0.0,0.0,86,0.00,,,0.00,,2013-02-16 00:31:00,
2013-02-16 00:41:00,43.0,39.0,30.14,North,0,0.0,0.0,86,0.00,,,0.00,,2013-02-16 00:41:00,
2013-02-16 00:52:00,43.0,39.0,30.16,North,0,0.0,0.0,86,0.00,,,0.00,,2013-02-16 00:52:00,
2013-02-16 01:01:00,43.0,39.0,30.16,NNW,338,0.0,0.0,86,0.00,,,0.00,,2013-02-16 01:01:00,
2013-02-16 01:11:00,43.0,39.0,30.16,NNW,338,0.0,0.0,86,0.00,,,0.00,,2013-02-16 01:11:00,
2013-02-16 01:21:00,43.0,39.0,30.14,NNW,338,0.0,0.0,87,0.00,,,0.00,,2013-02-16 01:21:00,
2013-02-16 01:31:00,43.0,39.0,30.14,NNW,338,0.0,0.0,87,0.00,,,0.00,,2013-02-16 01:31:00,
2013-02-16 01:41:00,43.0,39.0,30.14,NNW,338,0.0,0.0,87,0.00,,,0.00,,2013-02-16 01:41:00,
2013-02-16 01:52:00,43.0,39.0,30.14,NNW,338,0.0,0.0,87,0.00,,,0.00,,2013-02-16 01:52:00,
2013-02-16 02:01:00,44.0,41.0,30.14,NNW,338,0.0,0.0,88,0.00,,,0.00,,2013-02-16 02:01:00,
2013-02-16 02:11:00,44.0,41.0,30.14,NNW,338,0.0,0.0,88,0.00,,,0.00,,2013-02-16 02:11:00,
2013-02-16 02:21:00,44.0,41.0,30.14,NNW,338,0.0,0.0,89,0.00,,,0.00,,2013-02-16 02:21:00,
2013-02-16 02:31:00,44.0,41.0,30.14,NNW,338,0.0,0.0,89,0.00,,,0.00,,2013-02-16 02:31:00,
2013-02-16 02:42:00,44.0,41.0,30.14,NNW,338,0.0,0.0,89,0.00,,,0.00,,2013-02-16 02:42:00,
2013-02-16 02:52:00,44.0,41.0,30.14,NNW,338,0.0,0.0,89,0.00,,,0.00,,2013-02-16 02:52:00,
2013-02-16 03:01:00,44.0,41.0,30.14,NNW,338,0.0,0.0,90,0.00,,,0.00,,2013-02-16 03:01:00,
2013-02-16 03:11:00,44.0,41.0,30.14,NNW,338,0.0,0.0,90,0.00,,,0.00,,2013-02-16 03:11:00,
2013-02-16 03:21:00,44.0,41.0,30.11,NNW,338,0.0,0.0,90,0.00,,,0.00,,2013-02-16 03:21:00,
2013-02-16 03:31:00,44.0,42.0,30.14,NNW,338,0.0,0.0,91,0.00,,,0.00,,2013-02-16 03:31:00,
2013-02-16 03:41:00,44.0,42.0,30.14,NNW,338,0.0,0.0,91,0.00,,,0.00,,2013-02-16 03:41:00,
2013-02-16 03:52:00,44.0,42.0,30.11,NNW,338,0.0,0.0,91,0.00,,,0.00,,2013-02-16 03:52:00,
2013-02-16 04:01:00,44.0,41.0,30.11,NNW,338,0.0,0.0,90,0.00,,,0.00,,2013-02-16 04:01:00,
2013-02-16 04:11:00,43.0,40.0,30.11,North,0,0.0,0.0,90,0.00,,,0.00,,2013-02-16 04:11:00,
2013-02-16 04:21:00,43.0,40.0,30.11,North,0,0.0,0.0,90,0.00,,,0.00,,2013-02-16 04:21:00,
2013-02-16 04:31:00,43.0,41.0,30.11,NNW,338,0.0,0.0,91,0.00,,,0.00,,2013-02-16 04:31:00,
2013-02-16 04:41:00,43.0,41.0,30.11,NNW,338,0.0,0.0,91,0.00,,,0.00,,2013-02-16 04:41:00,
2013-02-16 04:51:00,43.0,41.0,30.11,NNW,338,0.0,0.0,92,0.00,,,0.00,,2013-02-16 04:51:00,
2013-02-16 05:01:00,43.0,41.0,30.11,NNW,338,0.0,0.0,92,0.00,,,0.00,,2013-02-16 05:01:00,
2013-02-16 05:11:00,43.0,41.0,30.11,NNW,338,0.0,0.0,92,0.00,,,0.00,,2013-02-16 05:11:00,
2013-02-16 05:21:00,43.0,41.0,30.11,NNW,338,0.0,0.0,92,0.00,,,0.00,,2013-02-16 05:21:00,
2013-02-16 05:31:00,43.0,41.0,30.11,North,0,0.0,0.0,91,0.00,,,0.00,,2013-02-16 05:31:00,
2013-02-16 05:42:00,43.0,41.0,30.11,North,0,0.0,0.0,91,0.00,,,0.00,,2013-02-16 05:42:00,
2013-02-16 05:52:00,42.0,40.0,30.11,NNW,338,0.0,0.0,91,0.00,,,0.00,,2013-02-16 05:52:00,
2013-02-16 06:01:00,42.0,40.0,30.08,West,270,0.0,0.0,92,0.00,,,0.00,,2013-02-16 06:01:00,
2013-02-16 06:11:00,42.0,40.0,30.08,West,270,0.0,0.0,92,0.00,,,0.00,,2013-02-16 06:11:00,
2013-02-16 06:21:00,42.0,40.0,30.08,WNW,292,0.0,0.0,92,0.00,,,0.00,,2013-02-16 06:21:00,
2013-02-16 06:32:00,41.0,39.0,30.08,NNW,338,0.0,0.0,93,0.00,,,0.00,,2013-02-16 06:32:00,
2013-02-16 06:41:00,41.0,39.0,30.08,NNW,338,0.0,0.0,93,0.00,,,0.00,,2013-02-16 06:41:00,
2013-02-16 06:51:00,42.0,40.0,30.08,NNE,22,0.0,0.0,94,0.00,,,0.00,,2013-02-16 06:51:00,
2013-02-16 07:02:00,42.0,40.0,30.08,NNE,22,0.0,0.0,94,0.00,,,0.00,,2013-02-16 07:02:00,
2013-02-16 07:11:00,42.0,40.0,30.08,NNE,22,0.0,0.0,94,0.00,,,0.00,,2013-02-16 07:11:00,
2013-02-16 07:21:00,42.0,41.0,30.11,NNE,22,0.0,0.0,95,0.00,,,0.00,,2013-02-16 07:21:00,
2013-02-16 07:31:00,42.0,41.0,30.11,NNE,22,0.0,0.0,95,0.00,,,0.00,,2013-02-16 07:31:00,
2013-02-16 07:41:00,42.0,41.0,30.11,NNE,22,0.0,0.0,95,0.00,,,0.00,,2013-02-16 07:41:00,
2013-02-16 07:52:00,41.0,40.0,30.11,NNE,22,0.0,0.0,95,0.00,,,0.00,,2013-02-16 07:52:00,
2013-02-16 08:01:00,41.0,40.0,30.11,NE,45,0.0,0.0,95,0.00,,,0.00,,2013-02-16 08:01:00,
2013-02-16 08:11:00,41.0,40.0,30.11,NE,45,0.0,0.0,95,0.00,,,0.00,,2013-02-16 08:11:00,
2013-02-16 08:21:00,41.0,40.0,30.11,NE,45,0.0,0.0,95,0.00,,,0.00,,2013-02-16 08:21:00,
2013-02-16 08:31:00,42.0,41.0,30.11,NNE,30,0.0,0.0,96,0.00,,,0.00,,2013-02-16 08:31:00,
2013-02-16 08:41:00,42.0,41.0,30.11,NNE,30,0.0,0.0,96,0.00,,,0.00,,2013-02-16 08:41:00,
2013-02-16 08:52:00,42.0,41.0,30.11,NNE,22,0.0,0.0,97,0.00,,,0.00,,2013-02-16 08:52:00,
2013-02-16 09:01:00,44.0,43.0,30.11,NNE,22,0.0,0.0,97,0.00,,,0.00,,2013-02-16 09:01:00,
2013-02-16 09:11:00,44.0,43.0,30.11,NNE,22,0.0,0.0,97,0.00,,,0.00,,2013-02-16 09:11:00,
2013-02-16 09:21:00,47.0,46.0,30.11,NNW,338,1.0,3.0,97,0.00,,,0.00,,2013-02-16 09:21:00,
2013-02-16 09:31:00,50.0,49.0,30.11,South,182,3.0,6.0,97,0.00,,,0.00,,2013-02-16 09:31:00,
2013-02-16 09:42:00,50.0,49.0,30.11,South,182,3.0,6.0,97,0.00,,,0.00,,2013-02-16 09:42:00,
2013-02-16 09:51:00,53.0,47.0,30.11,WSW,248,3.0,7.0,79,0.00,,,0.00,,2013-02-16 09:51:00,
2013-02-16 10:01:00,54.0,43.0,30.11,SW,230,2.0,6.0,66,0.00,,,0.00,,2013-02-16 10:01:00,
2013-02-16 10:11:00,55.0,42.0,30.11,South,181,2.0,5.0,61,0.00,,,0.00,,2013-02-16 10:11:00,
2013-02-16 10:21:00,55.0,42.0,30.11,South,181,2.0,5.0,61,0.00,,,0.00,,2013-02-16 10:21:00,
2013-02-16 10:31:00,55.0,41.0,30.14,SSE,164,4.0,5.0,58,0.00,,,0.00,,2013-02-16 10:31:00,
2013-02-16 10:41:00,55.0,41.0,30.14,SSE,164,4.0,5.0,58,0.00,,,0.00,,2013-02-16 10:41:00,
2013-02-16 10:52:00,56.0,40.0,30.11,SSE,156,5.0,8.0,55,0.00,,,0.00,,2013-02-16 10:52:00,
2013-02-16 11:01:00,56.0,40.0,30.11,SSE,155,4.0,6.0,55,0.00,,,0.00,,2013-02-16 11:01:00,
2013-02-16 11:11:00,56.0,40.0,30.11,SSE,155,4.0,6.0,55,0.00,,,0.00,,2013-02-16 11:11:00,
2013-02-16 11:22:00,56.0,38.0,30.11,SW,235,3.0,7.0,50,0.00,,,0.00,,2013-02-16 11:22:00,
2013-02-16 11:31:00,57.0,37.0,30.11,SSW,197,3.0,6.0,47,0.00,,,0.00,,2013-02-16 11:31:00,
2013-02-16 11:42:00,57.0,37.0,30.11,SSW,197,3.0,6.0,47,0.00,,,0.00,,2013-02-16 11:42:00,
2013-02-16 11:52:00,57.0,35.0,30.14,SSE,160,2.0,5.0,44,0.00,,,0.00,,2013-02-16 11:52:00,
2013-02-16 12:01:00,58.0,36.0,30.14,NW,308,2.0,5.0,43,0.00,,,0.00,,2013-02-16 12:01:00,
2013-02-16 12:12:00,58.0,36.0,30.14,NW,308,2.0,5.0,43,0.00,,,0.00,,2013-02-16 12:12:00,
2013-02-16 12:22:00,58.0,34.0,30.14,NE,45,2.0,3.0,41,0.00,,,0.00,,2013-02-16 12:22:00,
2013-02-16 12:32:00,59.0,35.0,30.14,NE,40,2.0,5.0,41,0.00,,,0.00,,2013-02-16 12:32:00,
2013-02-16 12:42:00,59.0,35.0,30.14,NE,40,2.0,5.0,41,0.00,,,0.00,,2013-02-16 12:42:00,
2013-02-16 12:52:00,59.0,35.0,30.11,West,279,2.0,5.0,40,0.00,,,0.00,,2013-02-16 12:52:00,
2013-02-16 13:01:00,58.0,34.0,30.11,NE,44,3.0,5.0,41,0.00,,,0.00,,2013-02-16 13:01:00,
2013-02-16 13:11:00,58.0,34.0,30.11,SE,131,3.0,6.0,40,0.00,,,0.00,,2013-02-16 13:11:00,
2013-02-16 13:21:00,58.0,34.0,30.11,SE,131,3.0,6.0,40,0.00,,,0.00,,2013-02-16 13:21:00,
2013-02-16 13:31:00,57.0,34.0,30.08,ESE,116,4.0,10.0,42,0.00,,,0.00,,2013-02-16 13:31:00,
2013-02-16 13:41:00,57.0,34.0,30.08,ESE,116,4.0,10.0,42,0.00,,,0.00,,2013-02-16 13:41:00,
2013-02-16 13:51:00,57.0,35.0,30.08,West,281,2.0,6.0,44,0.00,,,0.00,,2013-02-16 13:51:00,
2013-02-16 14:01:00,58.0,36.0,30.11,NNE,26,3.0,8.0,44,0.00,,,0.00,,2013-02-16 14:01:00,
2013-02-16 14:11:00,58.0,36.0,30.11,NNE,26,3.0,8.0,44,0.00,,,0.00,,2013-02-16 14:11:00,
2013-02-16 14:21:00,56.0,33.0,30.08,East,96,6.0,10.0,42,0.00,,,0.00,,2013-02-16 14:21:00,
2013-02-16 14:32:00,56.0,34.0,30.08,East,81,8.0,10.0,43,0.00,,,0.00,,2013-02-16 14:32:00,
2013-02-16 14:41:00,56.0,34.0,30.08,East,81,8.0,10.0,43,0.00,,,0.00,,2013-02-16 14:41:00,
2013-02-16 14:52:00,56.0,34.0,30.08,ENE,60,3.0,12.0,44,0.00,,,0.00,,2013-02-16 14:52:00,
2013-02-16 15:01:00,55.0,34.0,30.08,ENE,76,6.0,15.0,45,0.00,,,0.00,,2013-02-16 15:01:00,
2013-02-16 15:11:00,55.0,34.0,30.08,ENE,76,6.0,15.0,45,0.00,,,0.00,,2013-02-16 15:11:00,
2013-02-16 15:21:00,55.0,36.0,30.08,East,88,6.0,12.0,49,0.00,,,0.00,,2013-02-16 15:21:00,
2013-02-16 15:31:00,54.0,36.0,30.08,ESE,109,6.0,13.0,50,0.00,,,0.00,,2013-02-16 15:31:00,
2013-02-16 15:41:00,54.0,36.0,30.08,ESE,109,6.0,13.0,50,0.00,,,0.00,,2013-02-16 15:41:00,
2013-02-16 15:52:00,53.0,37.0,30.11,ESE,114,6.0,12.0,55,0.00,,,0.00,,2013-02-16 15:52:00,
2013-02-16 16:01:00,53.0,38.0,30.08,NE,45,5.0,9.0,56,0.00,,,0.00,,2013-02-16 16:01:00,
2013-02-16 16:11:00,53.0,38.0,30.08,NE,45,5.0,9.0,56,0.00,,,0.00,,2013-02-16 16:11:00,
2013-02-16 16:21:00,52.0,37.0,30.08,ENE,57,3.0,7.0,57,0.00,,,0.00,,2013-02-16 16:21:00,
2013-02-16 16:32:00,52.0,40.0,30.08,ESE,102,3.0,6.0,64,0.00,,,0.00,,2013-02-16 16:32:00,
2013-02-16 16:41:00,52.0,40.0,30.08,ESE,102,3.0,6.0,64,0.00,,,0.00,,2013-02-16 16:41:00,
2013-02-16 16:52:00,51.0,42.0,30.08,NW,325,3.0,6.0,70,0.00,,,0.00,,2013-02-16 16:52:00,
2013-02-16 17:01:00,50.0,41.0,30.08,East,86,3.0,6.0,71,0.00,,,0.00,,2013-02-16 17:01:00,
2013-02-16 17:11:00,50.0,41.0,30.08,East,86,3.0,6.0,71,0.00,,,0.00,,2013-02-16 17:11:00,
2013-02-16 17:21:00,51.0,43.0,30.08,NNW,329,3.0,5.0,73,0.00,,,0.00,,2013-02-16 17:21:00,
2013-02-16 17:31:00,49.0,42.0,30.08,WNW,283,3.0,5.0,76,0.00,,,0.00,,2013-02-16 17:31:00,
2013-02-16 17:41:00,49.0,42.0,30.08,WNW,283,3.0,5.0,76,0.00,,,0.00,,2013-02-16 17:41:00,
2013-02-16 17:52:00,49.0,42.0,30.08,ESE,114,3.0,7.0,78,0.00,,,0.00,,2013-02-16 17:52:00,
2013-02-16 18:01:00,48.0,43.0,30.08,SW,217,2.0,6.0,83,0.00,,,0.00,,2013-02-16 18:01:00,
2013-02-16 18:11:00,48.0,44.0,30.08,ESE,106,2.0,8.0,86,0.00,,,0.00,,2013-02-16 18:11:00,
2013-02-16 18:21:00,48.0,44.0,30.08,ESE,106,2.0,8.0,86,0.00,,,0.00,,2013-02-16 18:21:00,
2013-02-16 18:32:00,48.0,44.0,30.08,WSW,256,2.0,8.0,87,0.00,,,0.00,,2013-02-16 18:32:00,
2013-02-16 18:41:00,48.0,44.0,30.08,WSW,256,2.0,8.0,87,0.00,,,0.00,,2013-02-16 18:41:00,
2013-02-16 18:52:00,48.0,45.0,30.08,ENE,68,3.0,6.0,88,0.00,,,0.00,,2013-02-16 18:52:00,
2013-02-16 19:01:00,47.0,43.0,30.08,North,355,2.0,5.0,87,0.00,,,0.00,,2013-02-16 19:01:00,
2013-02-16 19:11:00,47.0,43.0,30.08,North,355,2.0,5.0,87,0.00,,,0.00,,2013-02-16 19:11:00,
2013-02-16 19:21:00,47.0,43.0,30.08,SE,126,3.0,8.0,87,0.00,,,0.00,,2013-02-16 19:21:00,
2013-02-16 19:31:00,47.0,43.0,30.08,ESE,107,3.0,7.0,85,0.00,,,0.00,,2013-02-16 19:31:00,
2013-02-16 19:42:00,47.0,43.0,30.08,ESE,107,3.0,7.0,85,0.00,,,0.00,,2013-02-16 19:42:00,
2013-02-16 19:52:00,48.0,43.0,30.08,NE,43,3.0,8.0,83,0.00,,,0.00,,2013-02-16 19:52:00,
2013-02-16 20:01:00,48.0,43.0,30.08,NNE,20,3.0,6.0,82,0.00,,,0.00,,2013-02-16 20:01:00,
2013-02-16 20:11:00,48.0,43.0,30.05,NNW,334,3.0,8.0,82,0.00,,,0.00,,2013-02-16 20:11:00,
2013-02-16 20:21:00,48.0,43.0,30.05,NNW,334,3.0,8.0,82,0.00,,,0.00,,2013-02-16 20:21:00,
2013-02-16 20:31:00,48.0,44.0,30.05,East,101,5.0,7.0,87,0.00,,,0.00,,2013-02-16 20:31:00,
2013-02-16 20:42:00,48.0,44.0,30.05,East,101,5.0,7.0,87,0.00,,,0.00,,2013-02-16 20:42:00,
2013-02-16 20:52:00,48.0,45.0,30.05,North,8,4.0,10.0,89,0.00,,,0.00,,2013-02-16 20:52:00,
2013-02-16 21:01:00,48.0,45.0,30.05,NNW,340,6.0,13.0,91,0.00,,,0.00,,2013-02-16 21:01:00,
2013-02-16 21:11:00,48.0,45.0,30.05,NNW,340,6.0,13.0,91,0.00,,,0.00,,2013-02-16 21:11:00,
2013-02-16 21:21:00,48.0,45.0,30.05,East,94,7.0,10.0,89,0.00,,,0.00,,2013-02-16 21:21:00,
2013-02-16 21:31:00,48.0,45.0,30.05,NE,53,5.0,10.0,88,0.00,,,0.00,,2013-02-16 21:31:00,
2013-02-16 21:41:00,48.0,45.0,30.05,NE,53,5.0,10.0,88,0.00,,,0.00,,2013-02-16 21:41:00,
2013-02-16 21:52:00,49.0,46.0,30.05,East,87,6.0,9.0,89,0.00,,,0.00,,2013-02-16 21:52:00,
2013-02-16 22:01:00,49.0,46.0,30.05,ESE,112,9.0,13.0,91,0.00,,,0.00,,2013-02-16 22:01:00,
2013-02-16 22:11:00,49.0,46.0,30.05,ESE,112,9.0,13.0,91,0.00,,,0.00,,2013-02-16 22:11:00,
2013-02-16 22:21:00,49.0,47.0,30.05,ESE,122,8.0,13.0,93,0.00,,,0.00,,2013-02-16 22:21:00,
2013-02-16 22:31:00,49.0,47.0,30.05,ESE,106,9.0,16.0,93,0.00,,,0.00,,2013-02-16 22:31:00,
2013-02-16 22:42:00,49.0,47.0,30.05,ESE,106,9.0,16.0,93,0.00,,,0.00,,2013-02-16 22:42:00,
2013-02-16 22:52:00,49.0,47.0,30.05,ENE,70,8.0,12.0,93,0.00,,,0.00,,2013-02-16 22:52:00,
2013-02-16 23:02:00,49.0,47.0,30.05,East,93,8.0,13.0,94,0.00,,,0.00,,2013-02-16 23:02:00,
2013-02-16 23:11:00,49.0,48.0,30.05,SE,131,6.0,10.0,95,0.00,,,0.00,,2013-02-16 23:11:00,
2013-02-16 23:21:00,49.0,48.0,30.05,SE,131,6.0,10.0,95,0.00,,,0.00,,2013-02-16 23:21:00,
2013-02-16 23:31:00,49.0,48.0,30.05,ESE,110,3.0,6.0,95,0.00,,,0.00,,2013-02-16 23:31:00,
2013-02-16 23:41:00,49.0,48.0,30.05,ESE,110,3.0,6.0,95,0.00,,,0.00,,2013-02-16 23:41:00,
2013-02-16 23:52:00,48.0,47.0,30.05,ESE,108,2.0,5.0,95,0.00,,,0.00,,2013-02-16 23:52:00,